Weather History for Newcastle, WY

Change the Weather History Date:

Thursday, September 12, 2013

  Actual Average (KCUT) Record (KCUT)
Temperature  
Mean Temperature 64 °F 56 °F  
Max Temperature 77 °F 70 °F 88 °F (1990)
Min Temperature 50 °F 42 °F 23 °F (2014)
Degree Days  
Heating Degree Days 2 9  
Month to date heating degree days 89  
Since 1 July heating degree days 243  
Cooling Degree Days 0 0  
Month to date cooling degree days 11  
Year to date cooling degree days 177  
Growing Degree Days 14 (Base 50)    
Moisture  
Dew Point 44 °F    
Average Humidity 49    
Maximum Humidity 82    
Minimum Humidity 29    
Precipitation  
Precipitation 0.00 in 0.06 in 0.82 in (1985)
Month to date precipitation 0.75  
Year to date precipitation 15.67  
Sea Level Pressure  
Sea Level Pressure 30.31 in    
Wind  
Wind Speed 6 mph (ESE)    
Max Wind Speed 17 mph    
Max Gust Speed 26 mph    
Visibility 10 miles    
Events      
T = Trace of Precipitation, MM = Missing Value Source: NWS Daily Summary

Daily Weather History Graph

Daily Weather History Graph

Search for Another Location

Airport:

Trip Planner

Search our weather history database for the weather conditions in past years. The results will help you decide how hot, cold, wet, or windy it might be!

Date:

Astronomy

Sep. 12, 2013 Rise Set
Actual Time 6:33 AM MDT 7:12 PM MDT
Civil Twilight 6:04 AM MDT 7:41 PM MDT
Nautical Twilight 5:29 AM MDT 8:15 PM MDT
Astronomical Twilight 4:54 AM MDT 8:51 PM MDT
Moon 2:16 PM MDT (9/12) 11:57 PM MDT (9/12)
Length of Visible Light 13h 37m
Length of Day
12h 39m
Waxing Crescent, 51% of the Moon is Illuminated
Sep 12
Waxing Crescent
Sep 19
Full
Sep 26
Last Quarter
Oct 4
New
Oct 11
First Quarter

Hourly Weather History & Observations

Time (MDT) Temp. Dew Point Humidity Pressure Visibility Wind Dir Wind Speed Gust Speed Precip Events Conditions
12:15 AM 57.2 °F 46.4 °F 67% 30.32 in 10.0 mi Calm Calm - N/A   Clear
12:35 AM 59.0 °F 46.4 °F 63% 30.32 in 10.0 mi North - - N/A   Clear
12:55 AM 57.2 °F 46.4 °F 67% 30.32 in 10.0 mi Calm Calm - N/A   Clear
1:15 AM 57.2 °F 46.4 °F 67% 30.32 in 10.0 mi North 6.9 mph - N/A   Clear
1:35 AM 55.4 °F 46.4 °F 72% 30.32 in 10.0 mi North 6.9 mph - N/A   Clear
1:55 AM 55.4 °F 46.4 °F 72% 30.32 in 10.0 mi North 8.1 mph - N/A   Clear
2:15 AM 55.4 °F 44.6 °F 67% 30.32 in 10.0 mi NNE 8.1 mph - N/A   Clear
2:35 AM 55.4 °F 44.6 °F 67% 30.32 in 10.0 mi North 4.6 mph - N/A   Clear
2:55 AM 55.4 °F 44.6 °F 67% 30.32 in 10.0 mi Calm Calm - N/A   Clear
3:15 AM 51.8 °F 44.6 °F 76% 30.32 in 10.0 mi NE 3.5 mph - N/A   Clear
3:35 AM 51.8 °F 44.6 °F 76% 30.32 in 10.0 mi NNE 4.6 mph - N/A   Clear
3:55 AM 53.6 °F 44.6 °F 72% 30.32 in 10.0 mi North 3.5 mph - N/A   Clear
4:15 AM 53.6 °F 44.6 °F 72% 30.32 in 10.0 mi North 9.2 mph - N/A   Clear
4:35 AM 53.6 °F 42.8 °F 67% 30.32 in 10.0 mi NNE 5.8 mph - N/A   Clear
4:55 AM 51.8 °F 42.8 °F 71% 30.33 in 10.0 mi SE 5.8 mph - N/A   Clear
5:15 AM 50.0 °F 44.6 °F 82% 30.33 in 10.0 mi Calm Calm - N/A   Clear
5:35 AM 51.8 °F 42.8 °F 71% 30.33 in 10.0 mi North 3.5 mph - N/A   Clear
5:55 AM 53.6 °F 42.8 °F 67% 30.33 in 10.0 mi North 8.1 mph - N/A   Clear
6:15 AM 53.6 °F 41.0 °F 62% 30.33 in 10.0 mi North 6.9 mph - N/A   Clear
6:35 AM 53.6 °F 41.0 °F 62% 30.33 in 10.0 mi North 3.5 mph - N/A   Clear
6:55 AM 53.6 °F 41.0 °F 62% 30.34 in 10.0 mi NNE 4.6 mph - N/A   Clear
7:15 AM 55.4 °F 42.8 °F 63% 30.34 in 10.0 mi North 5.8 mph - N/A   Clear
7:35 AM 51.8 °F 44.6 °F 76% 30.35 in 10.0 mi Calm Calm - N/A   Clear
7:55 AM 57.2 °F 44.6 °F 63% 30.35 in 10.0 mi Calm Calm - N/A   Clear
8:15 AM 60.8 °F 46.4 °F 59% 30.36 in 10.0 mi SSE 4.6 mph - N/A   Clear
8:35 AM 62.6 °F 44.6 °F 52% 30.36 in 10.0 mi SSE 5.8 mph - N/A   Clear
8:55 AM 64.4 °F 44.6 °F 49% 30.36 in 10.0 mi SSE 6.9 mph - N/A   Clear
9:15 AM 64.4 °F 44.6 °F 49% 30.36 in 10.0 mi North - - N/A   Clear
9:35 AM 66.2 °F 44.6 °F 46% 30.37 in 10.0 mi South 6.9 mph - N/A   Clear
9:55 AM 68.0 °F 44.6 °F 43% 30.37 in 10.0 mi South 6.9 mph - N/A   Clear
10:15 AM 68.0 °F 44.6 °F 43% 30.37 in 10.0 mi South 5.8 mph - N/A   Clear
10:35 AM 68.0 °F 44.6 °F 43% 30.37 in 10.0 mi South 4.6 mph - N/A   Clear
10:55 AM 69.8 °F 44.6 °F 40% 30.36 in 10.0 mi South 5.8 mph - N/A   Clear
11:15 AM 71.6 °F 44.6 °F 38% 30.35 in 10.0 mi ESE 8.1 mph - N/A   Clear
11:35 AM 73.4 °F 46.4 °F 38% 30.35 in 10.0 mi SSE 8.1 mph - N/A   Clear
11:55 AM 73.4 °F 46.4 °F 38% 30.35 in 10.0 mi SSE 8.1 mph - N/A   Clear
12:15 PM 73.4 °F 46.4 °F 38% 30.34 in 10.0 mi SSE 8.1 mph - N/A   Clear
12:35 PM 77.0 °F 46.4 °F 34% 30.33 in 10.0 mi SSE 16.1 mph 21.9 mph N/A   Clear
12:55 PM 77.0 °F 44.6 °F 32% 30.33 in 10.0 mi South 13.8 mph - N/A   Clear
1:15 PM 77.0 °F 44.6 °F 32% 30.32 in 10.0 mi North - - N/A   Clear
1:35 PM 77.0 °F 44.6 °F 32% 30.32 in 10.0 mi South 12.7 mph - N/A   Clear
1:55 PM 77.0 °F 42.8 °F 29% 30.32 in 10.0 mi North - - N/A   Clear
2:15 PM 77.0 °F 42.8 °F 29% 30.31 in 10.0 mi SSE 17.3 mph 25.3 mph N/A   Clear
2:35 PM 75.2 °F 42.8 °F 31% 30.30 in 10.0 mi North - - N/A   Clear
2:55 PM 77.0 °F 42.8 °F 29% 30.30 in 10.0 mi SSE 13.8 mph 20.7 mph N/A   Clear
3:15 PM 77.0 °F 42.8 °F 29% 30.29 in 10.0 mi North - - N/A   Clear
3:35 PM 75.2 °F 41.0 °F 29% 30.29 in 10.0 mi SSE 12.7 mph - N/A   Clear
3:55 PM 77.0 °F 42.8 °F 29% 30.28 in 10.0 mi North - - N/A   Clear
4:15 PM 77.0 °F 42.8 °F 29% 30.28 in 10.0 mi SSE 12.7 mph 17.3 mph N/A   Clear
4:35 PM 73.4 °F 41.0 °F 31% 30.28 in 10.0 mi SSE 13.8 mph - N/A   Clear
4:55 PM 73.4 °F 41.0 °F 31% 30.28 in 10.0 mi SSE 15.0 mph - N/A   Clear
5:15 PM 75.2 °F 41.0 °F 29% 30.28 in 10.0 mi SSE 9.2 mph - N/A   Clear
5:35 PM 73.4 °F 42.8 °F 33% 30.28 in 10.0 mi North - - N/A   Clear
5:55 PM 71.6 °F 42.8 °F 35% 30.28 in 10.0 mi SSE 12.7 mph - N/A   Clear
6:15 PM 71.6 °F 42.8 °F 35% 30.27 in 10.0 mi SE 9.2 mph 16.1 mph N/A   Clear
6:35 PM 71.6 °F 44.6 °F 38% 30.26 in 10.0 mi SE 8.1 mph - N/A   Clear
6:55 PM 69.8 °F 44.6 °F 40% 30.26 in 10.0 mi North - - N/A   Clear
7:15 PM 69.8 °F 44.6 °F 40% 30.26 in 10.0 mi North - - N/A   Clear
7:35 PM 68.0 °F 44.6 °F 43% 30.26 in 10.0 mi North - - N/A   Clear
7:55 PM 68.0 °F 44.6 °F 43% 30.26 in 10.0 mi North - - N/A   Clear
8:15 PM 68.0 °F 44.6 °F 43% 30.26 in 10.0 mi East 9.2 mph - N/A   Clear
8:35 PM 68.0 °F 44.6 °F 43% 30.26 in 10.0 mi East 11.5 mph 18.4 mph N/A   Clear
8:55 PM 68.0 °F 44.6 °F 43% 30.26 in 10.0 mi East 11.5 mph - N/A   Clear
9:15 PM 66.2 °F 44.6 °F 46% 30.26 in 10.0 mi East 12.7 mph - N/A   Clear
9:35 PM 66.2 °F 42.8 °F 43% 30.26 in 10.0 mi East 12.7 mph 17.3 mph N/A   Clear
9:55 PM 64.4 °F 42.8 °F 45% 30.26 in 10.0 mi ESE 10.4 mph 19.6 mph N/A   Clear
10:15 PM 64.4 °F 42.8 °F 45% 30.25 in 10.0 mi ESE 13.8 mph 18.4 mph N/A   Clear
10:35 PM 64.4 °F 42.8 °F 45% 30.25 in 10.0 mi ESE 12.7 mph 19.6 mph N/A   Clear
10:55 PM 64.4 °F 42.8 °F 45% 30.25 in 10.0 mi ESE 13.8 mph 20.7 mph N/A   Clear
11:15 PM 64.4 °F 42.8 °F 45% 30.25 in 10.0 mi ESE 17.3 mph 26.5 mph N/A   Clear
11:35 PM 64.4 °F 42.8 °F 45% 30.25 in 10.0 mi ESE 15.0 mph 19.6 mph N/A   Clear
11:55 PM 64.4 °F 42.8 °F 45% 30.24 in 10.0 mi ESE 13.8 mph 21.9 mph N/A   Clear